Minot, ND

10:27 PM CDT on May 22, 2017 (GMT -0500)
Minot International

Weather History for KMOT - September, 2013

Change the Weather History Date:

Monday, September 23, 2013

  Actual Average Record
Temperature  
Mean Temperature 60 °F 54 °F  
Max Temperature 64 °F 66 °F 96 °F (1917)
Min Temperature 55 °F 43 °F 28 °F (1976)
Degree Days  
Heating Degree Days 5 11  
Month to date heating degree days 77 163  
Since 1 July heating degree days 146 234  
Cooling Degree Days 0 0  
Month to date cooling degree days 50 30  
Year to date cooling degree days 421 441  
Growing Degree Days 8 (Base 50)    
Moisture  
Dew Point 56 °F    
Average Humidity 90    
Maximum Humidity 93    
Minimum Humidity 86    
Precipitation  
Precipitation 0.54 in 0.05 in 1.21 in (1977)
Month to date precipitation 1.79 1.13  
Year to date precipitation 21.97 14.57  
Sea Level Pressure  
Sea Level Pressure 29.55 in    
Wind  
Wind Speed 9 mph (West)    
Max Wind Speed 21 mph    
Max Gust Speed 25 mph    
Visibility 9 miles    
Events Rain , Thunderstorm    
T = Trace of Precipitation, MM = Missing Value Source: NWS Daily Summary

Daily Weather History Graph

Daily Weather History Graph

Search for Another Location

Airport or City:

Trip Planner

Search our weather history database for the weather conditions in past years. The results will help you decide how hot, cold, wet, or windy it might be!

Date:

Astronomy

Sep. 23, 2013 Rise Set
Actual Time 7:33 AM CDT 7:40 PM CDT
Civil Twilight 7:02 AM CDT 8:11 PM CDT
Nautical Twilight 6:25 AM CDT 8:47 PM CDT
Astronomical Twilight 5:48 AM CDT 9:25 PM CDT
Moon 9:51 PM CDT 12:16 PM CDT
Length of Visible Light 13h 08m
Length of Day
12h 06m
Waning Gibbous, 81% of the Moon is Illuminated
Sep 23
Waning Gibbous
Sep 26
Last Quarter
Oct 4
New
Oct 11
First Quarter
Oct 18
Full

Hourly Weather History & Observations

Time (CDT) Temp. Dew Point Humidity Pressure Visibility Wind Dir Wind Speed Gust Speed Precip Events Conditions
12:05 AM 60.8 °F 59.0 °F 94% 29.44 in 10.0 mi Calm Calm - 0.00 in Rain , Thunderstorm Light Rain
12:22 AM 62.6 °F 59.0 °F 88% 29.45 in 10.0 mi Calm Calm - 0.00 in   Scattered Clouds
12:54 AM 61.0 °F 57.9 °F 90% 29.43 in 4.0 mi Calm Calm - 0.06 in Rain Heavy Rain
1:00 AM 60.8 °F 59.0 °F 94% 29.44 in 2.5 mi WSW 5.8 mph - 0.09 in Rain , Thunderstorm Heavy Thunderstorms and Rain
1:19 AM 60.8 °F 57.2 °F 88% 29.42 in 8.0 mi Calm Calm - 0.19 in Rain , Thunderstorm Light Thunderstorms and Rain
1:26 AM 60.8 °F 57.2 °F 88% 29.43 in 10.0 mi NW 4.6 mph - 0.19 in   Overcast
1:54 AM 59.0 °F 57.0 °F 93% 29.41 in 10.0 mi WNW 5.8 mph - 0.20 in   Scattered Clouds
2:35 AM 60.8 °F 57.2 °F 88% 29.43 in 10.0 mi Calm Calm - N/A Thunderstorm Mostly Cloudy
2:54 AM 59.0 °F 57.0 °F 93% 29.47 in 8.0 mi WSW 6.9 mph - 0.01 in Rain , Thunderstorm Light Rain
3:17 AM 59.0 °F 57.2 °F 94% 29.47 in 10.0 mi WNW 4.6 mph - 0.03 in Rain Light Rain
3:54 AM 59.0 °F 55.9 °F 90% 29.40 in 10.0 mi NNW 9.2 mph - 0.03 in   Mostly Cloudy
4:54 AM 59.0 °F 57.0 °F 93% 29.46 in 10.0 mi SW 9.2 mph - N/A   Mostly Cloudy
5:54 AM 57.9 °F 55.9 °F 93% 29.40 in 8.0 mi WNW 11.5 mph 24.2 mph 0.03 in Rain Light Rain
6:28 AM 57.2 °F 55.4 °F 94% 29.50 in 10.0 mi South 5.8 mph - 0.01 in   Scattered Clouds
6:37 AM 57.2 °F 55.4 °F 94% 29.50 in 10.0 mi Calm Calm - 0.01 in   Mostly Cloudy
6:54 AM 57.9 °F 55.9 °F 93% 29.49 in 10.0 mi West 4.6 mph - 0.01 in   Overcast
7:54 AM 57.9 °F 55.9 °F 93% 29.48 in 9.0 mi West 3.5 mph - N/A   Overcast
8:54 AM 57.9 °F 55.9 °F 93% 29.50 in 9.0 mi WSW 4.6 mph - N/A   Overcast
9:54 AM 59.0 °F 57.0 °F 93% 29.51 in 7.0 mi WNW 10.4 mph - N/A   Overcast
10:54 AM 60.1 °F 57.0 °F 90% 29.55 in 8.0 mi West 11.5 mph - N/A   Overcast
11:54 AM 59.0 °F 57.0 °F 93% 29.56 in 10.0 mi West 9.2 mph - 0.00 in   Overcast
12:14 PM 59.0 °F 57.2 °F 94% 29.56 in 10.0 mi West 15.0 mph - 0.01 in Rain Light Rain
12:22 PM 59.0 °F 57.2 °F 94% 29.56 in 10.0 mi West 15.0 mph - 0.01 in   Overcast
12:33 PM 59.0 °F 55.4 °F 88% 29.56 in 10.0 mi West 15.0 mph - 0.01 in   Overcast
12:45 PM 59.0 °F 55.4 °F 88% 29.55 in 5.0 mi WNW 15.0 mph - 0.03 in Rain Rain
12:54 PM 59.0 °F 57.0 °F 93% 29.55 in 6.0 mi WNW 16.1 mph - 0.03 in Rain Light Rain
12:58 PM 59.0 °F 57.2 °F 94% 29.55 in 8.0 mi WNW 15.0 mph - 0.00 in Rain Light Rain
1:12 PM 60.8 °F 57.2 °F 88% 29.54 in 10.0 mi WNW 16.1 mph - 0.00 in   Overcast
1:54 PM 59.0 °F 55.9 °F 90% 29.57 in 10.0 mi WNW 16.1 mph - 0.00 in   Overcast
2:01 PM 60.8 °F 57.2 °F 88% 29.56 in 10.0 mi WNW 11.5 mph - N/A   Overcast
2:08 PM 60.8 °F 57.2 °F 88% 29.57 in 10.0 mi West 13.8 mph - N/A   Overcast
2:17 PM 60.8 °F 55.4 °F 82% 29.57 in 10.0 mi WNW 17.3 mph 21.9 mph N/A   Overcast
2:54 PM 59.0 °F 55.0 °F 87% 29.60 in 10.0 mi West 17.3 mph 25.3 mph 0.00 in   Overcast
3:01 PM 59.0 °F 55.4 °F 88% 29.61 in 10.0 mi West 15.0 mph - N/A   Overcast
3:42 PM 57.2 °F 53.6 °F 88% 29.60 in 2.0 mi WNW 19.6 mph 25.3 mph 0.08 in Rain Rain
3:50 PM 57.2 °F 53.6 °F 88% 29.61 in 8.0 mi WNW 16.1 mph - 0.08 in Rain Light Rain
3:54 PM 57.0 °F 54.0 °F 89% 29.62 in 10.0 mi West 16.1 mph - 0.08 in Rain Light Rain
4:54 PM 57.0 °F 53.1 °F 87% 29.66 in 5.0 mi WSW 9.2 mph - 0.02 in Rain Light Rain
5:54 PM 55.9 °F 53.1 °F 90% 29.68 in 7.0 mi West 8.1 mph - 0.06 in Rain Rain
6:54 PM 55.9 °F 53.1 °F 90% 29.70 in 10.0 mi SSW 5.8 mph - 0.13 in Rain Light Rain
7:54 PM 55.9 °F 54.0 °F 93% 29.73 in 10.0 mi South 6.9 mph - 0.01 in   Overcast
8:54 PM 55.9 °F 54.0 °F 93% 29.73 in 10.0 mi South 6.9 mph - N/A   Scattered Clouds
9:54 PM 57.0 °F 53.1 °F 87% 29.75 in 10.0 mi South 5.8 mph - N/A   Clear
10:54 PM 57.0 °F 53.1 °F 87% 29.75 in 10.0 mi SSW 10.4 mph - N/A   Clear
11:54 PM 55.9 °F 53.1 °F 90% 29.77 in 10.0 mi SSW 9.2 mph - N/A   Clear